Regional Weather Roundup
Issued by NWS

Home | Current Version | Previous Version | Graphics & Text | Print | Product List | Glossary On
Versions: 1 2 3 4 5 6 7 8 9 10 11 12 13 14 15 16 17 18 19 20 21 22 23 24 25 26 27 28
000
ASUS45 KCYS 301410
RWRWY

WYOMING REGIONAL WEATHER ROUNDUP
NATIONAL WEATHER SERVICE CHEYENNE WY
800 AM MDT SAT APR 30 2016

NOTE:  "FAIR" INDICATES FEW OR NO CLOUDS BELOW 12,000 FEET
WITH NO SIGNIFICANT WEATHER AND/OR OBSTRUCTIONS TO VISIBILITY.

WYZ001-301500-
YELLOWSTONE NATIONAL PARK

CITY           SKY/WX    TMP DP  RH WIND       PRES   REMARKS
LK YELLOWSTONE   N/A     32  24  72 VRB3      30.06R
W YELLOWSTONE  NOT AVBL

$$
WYZ002>013-054>058-071-098>099-301500-
NORTHERN WYOMING

CITY           SKY/WX    TMP DP  RH WIND       PRES   REMARKS
JACKSON        MOSUNNY   36  32  87 N17       29.99R WCI  25
CODY           CLOUDY    37  36  93 N7        30.08R WCI  32
GREYBULL       CLOUDY    45  36  70 NW14      30.02R
WORLAND        CLOUDY    43  36  76 CALM      30.05R
SHERIDAN       CLOUDY    41  36  82 NE3       30.13R
BUFFALO          N/A    N/A N/A N/A MISG      30.11R
GILLETTE       CLOUDY    38  35  89 NE12      30.08R WCI  30
HULETT         CLOUDY    37  36  93 NE9       30.10R WCI  31
NEWCASTLE      CLOUDY    37  30  75 E7G17     30.06R WCI  32

$$
WYZ014>020-022>026-101>103-301500-
CENTRAL WYOMING

CITY           SKY/WX    TMP DP  RH WIND       PRES   REMARKS
BIG PINEY      CLOUDY    32  30  92 SW3       30.01R
PINEDALE       PTSUNNY   32  32 100 CALM      30.01R
DUBOIS         LGT SNOW  30  28  93 E3        30.03R
LANDER         LGT SNOW  33  32  96 NW8       30.03R FOG     WCI  26
RIVERTON       CLOUDY    37  34  89 N9        30.04R WCI  30
CASPER         LGT SNOW  32  30  92 NE9       30.02R FOG     WCI  24
DOUGLAS        LGT SNOW  33  32  96 NW5       30.03R VSB 1   WCI  29

$$
WYZ021-027>030-104>119-301500-
SOUTHERN WYOMING

CITY           SKY/WX    TMP DP  RH WIND       PRES   REMARKS
EVANSTON       CLOUDY    33  27  78 E13       29.97R WCI  24
KEMMERER         N/A     32  30  93 E5        30.00R WCI  27
FORT BRIDGER   FLURRIES  32  32 100 E9        30.03R WCI  24
ROCK SPRINGS   LGT SNOW  32  28  85 NE15      29.99R FOG     WCI  22
DIXON          CLOUDY    35  27  71 N14G20    29.94R WCI  26
RAWLINS        CLOUDY    30  27  88 N9        29.97R FOG     WCI  22
SARATOGA       CLOUDY    30  30 100 N8        29.96R WCI  23
LARAMIE        LGT SNOW  25  23  92 N13       29.93R VSB 1   WCI  14
CHEYENNE       SNOW      29  26  89 N16       29.91R VSB 1/2 WCI  17
TORRINGTON     LGT SNOW  34  32  92 N15       29.96R FOG     WCI  24
PINE BLUFFS    LGT SNOW  32  30  93 N15G21    29.91R WCI  22

$$




USA.gov is the U.S. government's official web portal to all federal, state and local government web resources and services.